Language: 


Des rapports , des résumés tant et plus, au choix de chacun....


Données statistiques de la station
Quotidien Rapport Septembre 26, 2017 Unités:  Métrique    Anglais   les deux
« Précédent Jour
Suivant Jour »
Quotidien Hebdomadaire Mensuel Annuel Actuel
  Haut: Bas: Moyen:
Température: 22.8 °C 0.0 °C 15.8 °C
Pt de rosée: 18.0 °C 12.0 °C 13.4 °C
Humidité: 98 % 0 % 86 %
Vitesse du vent: 10.1 km/h 0.0 km/h 2.5 km/h
Rafales: 12.2 km/h - -
Vent:- - East
Pression: 1021.9 hPa 1018.8 hPa -
Précipitation: 0.0 mm    
Historical Graphs
 
 
Données statistiques pour Septembre 26, 2017
Heure Température Point de rosée Pression Vent Vitesse du vent Refales Humidité Pluie (taux horaire)
00:02 13.6 °C 13.0 °C 1019.9 hPa North 4.3 km/h 6.9 km/h 94 % 0.0 mm
00:07 13.6 °C 13.0 °C 1019.9 hPa Calm   6.4 km/h 94 % 0.0 mm
00:12 13.6 °C 13.0 °C 1019.9 hPa Calm   5.8 km/h 95 % 0.0 mm
00:17 13.6 °C 13.0 °C 1019.9 hPa Calm   6.4 km/h 95 % 0.0 mm
00:22 13.6 °C 13.0 °C 1019.9 hPa NNE 5.5 km/h 6.9 km/h 95 % 0.0 mm
00:27 13.6 °C 13.0 °C 1019.9 hPa NNE 4.3 km/h 6.9 km/h 95 % 0.0 mm
00:32 13.5 °C 13.0 °C 1019.9 hPa North 5.5 km/h 6.4 km/h 95 % 0.0 mm
00:37 13.5 °C 13.0 °C 1019.9 hPa NNE 5.5 km/h 7.6 km/h 95 % 0.0 mm
00:42 13.4 °C 13.0 °C 1019.9 hPa Calm   7.6 km/h 95 % 0.0 mm
00:47 13.3 °C 13.0 °C 1019.9 hPa NE 4.7 km/h 5.5 km/h 95 % 0.0 mm
00:57 13.1 °C 13.0 °C 1019.9 hPa Calm   4.7 km/h 95 % 0.0 mm
01:02 13.1 °C 13.0 °C 1019.9 hPa Calm   4.7 km/h 95 % 0.0 mm
01:07 12.9 °C 13.0 °C 1019.9 hPa Calm   2.1 km/h 95 % 0.0 mm
01:12 12.9 °C 13.0 °C 1019.9 hPa Calm     95 % 0.0 mm
01:17 13.0 °C 13.0 °C 1019.9 hPa Calm   5.8 km/h 96 % 0.0 mm
01:23 13.0 °C 13.0 °C 1019.9 hPa North 4.7 km/h 7.6 km/h 96 % 0.0 mm
01:28 13.0 °C 13.0 °C 1019.9 hPa NNE 5.0 km/h 7.6 km/h 96 % 0.0 mm
01:33 13.1 °C 13.0 °C 1019.9 hPa Calm   6.9 km/h 97 % 0.0 mm
01:38 13.0 °C 13.0 °C 1019.9 hPa Calm   6.4 km/h 97 % 0.0 mm
01:43 13.0 °C 13.0 °C 1019.9 hPa NNE 4.0 km/h 5.8 km/h 97 % 0.0 mm
01:48 12.9 °C 13.0 °C 1019.9 hPa NNE 5.0 km/h 6.1 km/h 97 % 0.0 mm
01:53 12.9 °C 13.0 °C 1019.9 hPa Calm   6.1 km/h 97 % 0.0 mm
01:58 12.8 °C 13.0 °C 1019.9 hPa NE 5.0 km/h 5.0 km/h 97 % 0.0 mm
02:03 12.8 °C 13.0 °C 1018.8 hPa Calm   6.4 km/h 97 % 0.0 mm
02:08 12.6 °C 13.0 °C 1018.8 hPa NNE 5.5 km/h 6.4 km/h 97 % 0.0 mm
02:13 12.6 °C 13.0 °C 1018.8 hPa NNE 1.4 km/h 6.1 km/h 97 % 0.0 mm
02:18 12.6 °C 13.0 °C 1018.8 hPa Calm   6.4 km/h 97 % 0.0 mm
02:23 12.6 °C 13.0 °C 1018.8 hPa NE 7.9 km/h 7.9 km/h 97 % 0.0 mm
02:28 12.6 °C 13.0 °C 1018.8 hPa NNE 8.7 km/h 9.0 km/h 98 % 0.0 mm
02:33 12.5 °C 13.0 °C 1018.8 hPa NE 4.3 km/h 9.0 km/h 97 % 0.0 mm
02:38 12.5 °C 13.0 °C 1018.8 hPa North 5.5 km/h 7.9 km/h 97 % 0.0 mm
02:43 12.4 °C 12.0 °C 1018.8 hPa NNE 5.5 km/h 5.5 km/h 97 % 0.0 mm
02:48 12.3 °C 12.0 °C 1018.8 hPa Calm   5.8 km/h 97 % 0.0 mm
02:53 12.2 °C 12.0 °C 1018.8 hPa NE 5.0 km/h 6.1 km/h 98 % 0.0 mm
02:58 12.1 °C 12.0 °C 1018.8 hPa NNE 3.2 km/h 6.1 km/h 98 % 0.0 mm
03:04 0.0 °C 12.0 °C 1018.8 hPa NNE 4.3 km/h 5.0 km/h 0 % 0.0 mm
03:09 11.9 °C 12.0 °C 1018.8 hPa NE 4.3 km/h 6.9 km/h 98 % 0.0 mm
03:14 11.9 °C 12.0 °C 1018.8 hPa NNE 3.2 km/h 6.9 km/h 98 % 0.0 mm
03:19 11.9 °C 12.0 °C 1018.8 hPa Calm   6.9 km/h 98 % 0.0 mm
03:24 12.0 °C 12.0 °C 1018.8 hPa NNE 4.7 km/h 6.9 km/h 98 % 0.0 mm
03:29 12.0 °C 12.0 °C 1018.8 hPa NE 3.5 km/h 6.4 km/h 98 % 0.0 mm
03:34 11.9 °C 12.0 °C 1018.8 hPa NNE 4.7 km/h 6.4 km/h 98 % 0.0 mm
03:39 11.9 °C 12.0 °C 1018.8 hPa NNE 6.1 km/h 6.4 km/h 98 % 0.0 mm
03:44 11.9 °C 12.0 °C 1018.8 hPa NE 5.0 km/h 6.1 km/h 98 % 0.0 mm
03:49 11.9 °C 12.0 °C 1018.8 hPa NNE 4.3 km/h 6.4 km/h 98 % 0.0 mm
03:54 11.9 °C 12.0 °C 1018.8 hPa Calm   6.4 km/h 98 % 0.0 mm
03:59 11.9 °C 12.0 °C 1018.8 hPa North 4.0 km/h 6.1 km/h 98 % 0.0 mm
04:04 12.0 °C 12.0 °C 1018.8 hPa Calm   6.4 km/h 98 % 0.0 mm
04:09 12.0 °C 12.0 °C 1018.8 hPa Calm   6.4 km/h 98 % 0.0 mm
04:14 12.1 °C 12.0 °C 1018.8 hPa NNE 5.0 km/h 9.0 km/h 98 % 0.0 mm
04:19 12.0 °C 12.0 °C 1018.8 hPa NNE 7.9 km/h 9.3 km/h 98 % 0.0 mm
04:24 12.0 °C 12.0 °C 1018.8 hPa NE 3.2 km/h 9.3 km/h 98 % 0.0 mm
04:29 11.9 °C 12.0 °C 1018.8 hPa NNE 5.8 km/h 7.6 km/h 98 % 0.0 mm
04:34 11.9 °C 12.0 °C 1018.8 hPa Calm   6.1 km/h 98 % 0.0 mm
04:39 11.9 °C 12.0 °C 1018.8 hPa Calm   6.1 km/h 98 % 0.0 mm
04:44 11.9 °C 12.0 °C 1018.8 hPa Calm   4.7 km/h 98 % 0.0 mm
04:49 12.0 °C 12.0 °C 1018.8 hPa Calm   5.0 km/h 98 % 0.0 mm
04:54 12.0 °C 12.0 °C 1018.8 hPa Calm   5.8 km/h 98 % 0.0 mm
04:59 12.0 °C 12.0 °C 1018.8 hPa ENE 4.7 km/h 5.8 km/h 98 % 0.0 mm
05:04 12.1 °C 12.0 °C 1018.8 hPa Calm   6.1 km/h 98 % 0.0 mm
05:09 12.1 °C 12.0 °C 1018.8 hPa Calm   6.1 km/h 98 % 0.0 mm
05:15 12.2 °C 12.0 °C 1018.8 hPa NNE 4.3 km/h 4.3 km/h 98 % 0.0 mm
05:21 12.2 °C 12.0 °C 1018.8 hPa North 4.7 km/h 5.8 km/h 98 % 0.0 mm
05:22 12.2 °C 12.0 °C 1018.8 hPa Calm   5.8 km/h 98 % 0.0 mm
05:26 12.2 °C 12.0 °C 1018.8 hPa Calm   5.8 km/h 98 % 0.0 mm
05:29 12.2 °C 12.0 °C 1018.8 hPa NE 2.6 km/h 5.8 km/h 98 % 0.0 mm
05:32 12.2 °C 12.0 °C 1019.9 hPa NNE 4.7 km/h 4.7 km/h 98 % 0.0 mm
05:37 12.2 °C 12.0 °C 1019.9 hPa NNE 5.0 km/h 5.0 km/h 98 % 0.0 mm
05:42 12.2 °C 12.0 °C 1019.9 hPa Calm   5.0 km/h 98 % 0.0 mm
05:48 12.2 °C 12.0 °C 1018.8 hPa Calm   2.1 km/h 98 % 0.0 mm
05:53 12.2 °C 12.0 °C 1018.8 hPa Calm     98 % 0.0 mm
05:58 12.2 °C 12.0 °C 1018.8 hPa Calm     98 % 0.0 mm
06:03 12.2 °C 12.0 °C 1018.8 hPa Calm     98 % 0.0 mm
06:08 12.2 °C 12.0 °C 1018.8 hPa Calm   3.5 km/h 98 % 0.0 mm
06:13 12.3 °C 13.0 °C 1018.8 hPa Calm   3.5 km/h 98 % 0.0 mm
06:23 12.3 °C 13.0 °C 1018.8 hPa Calm   5.0 km/h 98 % 0.0 mm
06:28 12.3 °C 13.0 °C 1018.8 hPa Calm   5.0 km/h 98 % 0.0 mm
06:33 12.3 °C 13.0 °C 1018.8 hPa Calm   3.5 km/h 98 % 0.0 mm
06:38 12.3 °C 13.0 °C 1018.8 hPa Calm   4.3 km/h 98 % 0.0 mm
06:43 12.4 °C 13.0 °C 1018.8 hPa Calm   4.3 km/h 98 % 0.0 mm
06:48 12.4 °C 13.0 °C 1019.9 hPa Calm     98 % 0.0 mm
06:53 12.4 °C 13.0 °C 1019.9 hPa Calm     98 % 0.0 mm
06:58 12.4 °C 13.0 °C 1019.9 hPa Calm     98 % 0.0 mm
07:03 12.4 °C 13.0 °C 1019.9 hPa Calm     98 % 0.0 mm
07:13 12.5 °C 13.0 °C 1019.9 hPa Calm   10.1 km/h 98 % 0.0 mm
07:18 12.5 °C 13.0 °C 1019.9 hPa Calm   9.0 km/h 98 % 0.0 mm
07:23 12.5 °C 13.0 °C 1019.9 hPa Calm   6.4 km/h 98 % 0.0 mm
07:28 12.5 °C 13.0 °C 1019.9 hPa Calm   6.4 km/h 98 % 0.0 mm
07:33 12.5 °C 13.0 °C 1019.9 hPa Calm   6.4 km/h 98 % 0.0 mm
07:38 12.5 °C 13.0 °C 1019.9 hPa NE 4.0 km/h 4.0 km/h 98 % 0.0 mm
07:43 12.5 °C 13.0 °C 1019.9 hPa NNE 4.3 km/h 4.3 km/h 98 % 0.0 mm
07:48 12.5 °C 13.0 °C 1019.9 hPa Calm   4.3 km/h 98 % 0.0 mm
07:49 12.5 °C 13.0 °C 1019.9 hPa Calm   4.3 km/h 98 % 0.0 mm
07:54 12.6 °C 13.0 °C 1019.9 hPa Calm   4.3 km/h 98 % 0.0 mm
07:59 12.6 °C 13.0 °C 1019.9 hPa North 3.5 km/h 4.0 km/h 98 % 0.0 mm
08:04 12.7 °C 13.0 °C 1020.9 hPa Calm   4.7 km/h 98 % 0.0 mm
08:09 12.8 °C 13.0 °C 1020.9 hPa Calm   4.7 km/h 98 % 0.0 mm
08:14 12.8 °C 13.0 °C 1020.9 hPa Calm   1.4 km/h 98 % 0.0 mm
08:19 12.8 °C 13.0 °C 1020.9 hPa Calm     98 % 0.0 mm
08:20 12.8 °C 13.0 °C 1020.9 hPa Calm     98 % 0.0 mm
08:25 12.9 °C 13.0 °C 1020.9 hPa Calm     98 % 0.0 mm
08:30 12.9 °C 13.0 °C 1020.9 hPa Calm     98 % 0.0 mm
08:35 13.0 °C 13.0 °C 1020.9 hPa Calm     98 % 0.0 mm
08:40 13.0 °C 13.0 °C 1020.9 hPa Calm     98 % 0.0 mm
08:45 13.1 °C 13.0 °C 1020.9 hPa Calm   3.5 km/h 98 % 0.0 mm
08:50 13.2 °C 13.0 °C 1020.9 hPa Calm   6.1 km/h 98 % 0.0 mm
08:55 13.2 °C 13.0 °C 1020.9 hPa Calm   6.1 km/h 98 % 0.0 mm
09:00 13.4 °C 13.0 °C 1020.9 hPa Calm   4.7 km/h 98 % 0.0 mm
09:05 14.0 °C 14.0 °C 1020.9 hPa Calm   2.6 km/h 98 % 0.0 mm
09:10 14.1 °C 14.0 °C 1020.9 hPa Calm   5.8 km/h 98 % 0.0 mm
09:15 14.1 °C 14.0 °C 1020.9 hPa Calm   6.4 km/h 98 % 0.0 mm
09:20 14.4 °C 14.0 °C 1020.9 hPa NE 3.5 km/h 6.4 km/h 98 % 0.0 mm
09:25 14.4 °C 14.0 °C 1020.9 hPa North 2.6 km/h 6.1 km/h 98 % 0.0 mm
09:30 14.4 °C 14.0 °C 1020.9 hPa Calm   3.5 km/h 98 % 0.0 mm
09:35 14.4 °C 14.0 °C 1020.9 hPa Calm   6.1 km/h 98 % 0.0 mm
09:40 14.4 °C 14.0 °C 1020.9 hPa Calm   6.1 km/h 98 % 0.0 mm
09:45 14.4 °C 14.0 °C 1020.9 hPa Calm   5.0 km/h 98 % 0.0 mm
09:50 14.5 °C 15.0 °C 1020.9 hPa NNE 4.0 km/h 4.0 km/h 98 % 0.0 mm
09:55 14.6 °C 15.0 °C 1020.9 hPa Calm   4.0 km/h 98 % 0.0 mm
10:05 14.7 °C 14.0 °C 1020.9 hPa Calm   4.0 km/h 97 % 0.0 mm
10:10 14.7 °C 14.0 °C 1020.9 hPa Calm   4.0 km/h 97 % 0.0 mm
10:15 14.8 °C 14.0 °C 1020.9 hPa Calm   3.2 km/h 97 % 0.0 mm
10:20 14.8 °C 14.0 °C 1020.9 hPa Calm   4.3 km/h 97 % 0.0 mm
10:25 15.0 °C 15.0 °C 1020.9 hPa NE 5.0 km/h 6.4 km/h 97 % 0.0 mm
10:30 15.2 °C 15.0 °C 1020.9 hPa Calm   6.4 km/h 97 % 0.0 mm
10:35 15.3 °C 15.0 °C 1020.9 hPa Calm   5.8 km/h 97 % 0.0 mm
10:40 15.6 °C 15.0 °C 1020.9 hPa Calm   4.7 km/h 97 % 0.0 mm
10:45 15.7 °C 15.0 °C 1021.9 hPa Calm   4.7 km/h 97 % 0.0 mm
10:50 15.8 °C 15.0 °C 1021.9 hPa Calm   6.4 km/h 96 % 0.0 mm
10:55 15.8 °C 15.0 °C 1021.9 hPa Calm   6.4 km/h 96 % 0.0 mm
11:01 15.8 °C 15.0 °C 1019.9 hPa Calm   1.8 km/h 96 % 0.0 mm
11:06 15.8 °C 15.0 °C 1019.9 hPa Calm     96 % 0.0 mm
11:11 15.8 °C 15.0 °C 1019.9 hPa Calm   2.6 km/h 96 % 0.0 mm
11:16 16.4 °C 16.0 °C 1020.9 hPa Calm   2.6 km/h 96 % 0.0 mm
11:21 17.0 °C 17.0 °C 1020.9 hPa Calm   5.5 km/h 96 % 0.0 mm
11:26 17.8 °C 17.0 °C 1020.9 hPa Calm   5.8 km/h 95 % 0.0 mm
11:31 17.8 °C 17.0 °C 1019.9 hPa Calm   6.9 km/h 95 % 0.0 mm
11:36 18.8 °C 18.0 °C 1019.9 hPa NNE 8.7 km/h 8.7 km/h 93 % 0.0 mm
11:41 19.1 °C 18.0 °C 1019.9 hPa North 5.0 km/h 8.7 km/h 92 % 0.0 mm
11:46 19.1 °C 18.0 °C 1020.9 hPa NNE 6.1 km/h 6.9 km/h 92 % 0.0 mm
11:51 19.7 °C 18.0 °C 1020.9 hPa NE 1.4 km/h 6.9 km/h 89 % 0.0 mm
11:56 19.7 °C 18.0 °C 1020.9 hPa North 8.7 km/h 9.7 km/h 89 % 0.0 mm
12:01 19.9 °C 18.0 °C 1020.9 hPa NE 9.7 km/h 9.7 km/h 85 % 0.0 mm
12:06 19.9 °C 17.0 °C 1020.9 hPa NE 6.9 km/h 10.1 km/h 83 % 0.0 mm
12:11 19.9 °C 17.0 °C 1020.9 hPa NE 4.3 km/h 10.1 km/h 83 % 0.0 mm
12:16 19.9 °C 17.0 °C 1019.9 hPa NNE 9.7 km/h 9.7 km/h 83 % 0.0 mm
12:21 19.9 °C 17.0 °C 1019.9 hPa ENE 8.7 km/h 9.7 km/h 83 % 0.0 mm
12:26 19.9 °C 17.0 °C 1019.9 hPa ENE 1.4 km/h 8.7 km/h 83 % 0.0 mm
12:36 21.0 °C 17.0 °C 1019.9 hPa NE 4.3 km/h 9.3 km/h 79 % 0.0 mm
12:41 21.2 °C 17.0 °C 1019.9 hPa Calm   7.9 km/h 76 % 0.0 mm
12:46 21.5 °C 17.0 °C 1020.9 hPa NE 9.0 km/h 9.7 km/h 76 % 0.0 mm
12:51 21.7 °C 17.0 °C 1020.9 hPa NE 5.8 km/h 9.7 km/h 74 % 0.0 mm
12:56 21.1 °C 16.0 °C 1020.9 hPa Calm   9.7 km/h 71 % 0.0 mm
13:02 21.0 °C 16.0 °C 1020.9 hPa Calm   10.1 km/h 71 % 0.0 mm
13:07 21.1 °C 16.0 °C 1020.9 hPa NE 5.8 km/h 10.1 km/h 73 % 0.0 mm
13:12 21.2 °C 16.0 °C 1020.9 hPa East 6.1 km/h 6.1 km/h 73 % 0.0 mm
13:17 20.9 °C 16.0 °C 1019.9 hPa NE 7.9 km/h 7.9 km/h 72 % 0.0 mm
13:22 20.6 °C 15.0 °C 1019.9 hPa NE 5.5 km/h 7.9 km/h 70 % 0.0 mm
13:27 20.5 °C 15.0 °C 1019.9 hPa Calm   9.0 km/h 70 % 0.0 mm
13:32 20.2 °C 15.0 °C 1019.9 hPa East 1.4 km/h 9.0 km/h 72 % 0.0 mm
13:37 20.2 °C 15.0 °C 1019.9 hPa ESE 8.7 km/h 9.3 km/h 72 % 0.0 mm
13:42 20.2 °C 15.0 °C 1019.9 hPa East 6.9 km/h 9.7 km/h 72 % 0.0 mm
13:47 22.1 °C 16.0 °C 1019.9 hPa NE 6.4 km/h 9.7 km/h 69 % 0.0 mm
13:52 22.1 °C 16.0 °C 1019.9 hPa SE 4.7 km/h 10.1 km/h 69 % 0.0 mm
13:57 22.1 °C 16.0 °C 1019.9 hPa ENE 10.1 km/h 12.2 km/h 69 % 0.0 mm
14:02 22.1 °C 16.0 °C 1019.9 hPa NNE 8.7 km/h 12.2 km/h 69 % 0.0 mm
14:07 22.1 °C 16.0 °C 1019.9 hPa NNW 2.1 km/h 9.3 km/h 69 % 0.0 mm
14:12 22.1 °C 16.0 °C 1019.9 hPa Calm   9.3 km/h 69 % 0.0 mm
14:17 21.3 °C 14.0 °C 1020.9 hPa NE 7.6 km/h 9.0 km/h 63 % 0.0 mm
14:22 21.6 °C 15.0 °C 1020.9 hPa Calm   9.0 km/h 65 % 0.0 mm
14:27 21.6 °C 14.0 °C 1020.9 hPa Calm   7.6 km/h 63 % 0.0 mm
14:33 22.1 °C 15.0 °C 1020.9 hPa Calm     64 % 0.0 mm
14:38 22.5 °C 15.0 °C 1020.9 hPa Calm     63 % 0.0 mm
14:43 22.6 °C 15.0 °C 1020.9 hPa Calm     62 % 0.0 mm
14:48 22.6 °C 15.0 °C 1020.9 hPa Calm     62 % 0.0 mm
14:53 22.8 °C 15.0 °C 1020.9 hPa Calm     60 % 0.0 mm
14:58 22.8 °C 14.0 °C 1020.9 hPa Calm     58 % 0.0 mm
15:03 22.8 °C 14.0 °C 1020.9 hPa Calm     58 % 0.0 mm
15:08 22.5 °C 14.0 °C 1020.9 hPa Calm     59 % 0.0 mm
15:13 22.3 °C 13.0 °C 1020.9 hPa Calm     56 % 0.0 mm
15:18 22.5 °C 14.0 °C 1020.9 hPa Calm     58 % 0.0 mm
15:23 22.2 °C 13.0 °C 1020.9 hPa Calm     57 % 0.0 mm
15:29 21.8 °C 13.0 °C 1020.9 hPa Calm     56 % 0.0 mm
15:34 22.0 °C 13.0 °C 1020.9 hPa Calm     57 % 0.0 mm
15:39 22.0 °C 13.0 °C 1020.9 hPa Calm     57 % 0.0 mm
15:44 22.1 °C 13.0 °C 1020.9 hPa Calm     58 % 0.0 mm
15:49 22.1 °C 13.0 °C 1020.9 hPa Calm     56 % 0.0 mm
15:54 22.2 °C 13.0 °C 1020.9 hPa Calm     57 % 0.0 mm
15:59 22.3 °C 13.0 °C 1020.9 hPa Calm     57 % 0.0 mm
16:04 22.5 °C 14.0 °C 1020.9 hPa Calm     58 % 0.0 mm
16:09 22.4 °C 13.0 °C 1020.9 hPa Calm     56 % 0.0 mm
16:14 22.3 °C 13.0 °C 1020.9 hPa Calm     57 % 0.0 mm
16:19 22.3 °C 13.0 °C 1020.9 hPa ENE 4.7 km/h 4.7 km/h 56 % 0.0 mm
16:24 22.2 °C 13.0 °C 1020.9 hPa East 5.0 km/h 5.0 km/h 57 % 0.0 mm
16:29 22.3 °C 13.0 °C 1020.9 hPa East 5.0 km/h 5.0 km/h 57 % 0.0 mm
16:34 22.5 °C 14.0 °C 1020.9 hPa East 5.0 km/h 5.0 km/h 59 % 0.0 mm
16:39 22.6 °C 14.0 °C 1020.9 hPa East 5.0 km/h 5.0 km/h 58 % 0.0 mm
16:44 22.4 °C 13.0 °C 1020.9 hPa East 5.0 km/h 5.0 km/h 55 % 0.0 mm
16:49 22.1 °C 12.0 °C 1020.9 hPa East 5.0 km/h 5.0 km/h 53 % 0.0 mm
16:54 22.0 °C 12.0 °C 1020.9 hPa East 5.0 km/h 5.0 km/h 53 % 0.0 mm
17:04 21.7 °C 13.0 °C 1020.9 hPa East 5.0 km/h 5.0 km/h 58 % 0.0 mm
17:09 21.6 °C 13.0 °C 1020.9 hPa East 5.0 km/h 5.0 km/h 58 % 0.0 mm
17:14 21.6 °C 13.0 °C 1020.9 hPa East 5.0 km/h 5.0 km/h 59 % 0.0 mm
17:19 21.6 °C 14.0 °C 1020.9 hPa East 5.0 km/h 5.0 km/h 60 % 0.0 mm
17:25 21.5 °C 14.0 °C 1020.9 hPa East 5.0 km/h 5.0 km/h 60 % 0.0 mm
17:27 21.5 °C 14.0 °C 1020.9 hPa East 5.0 km/h 5.0 km/h 60 % 0.0 mm
17:33 21.4 °C 13.0 °C 1020.9 hPa East 5.0 km/h 5.0 km/h 59 % 0.0 mm
17:38 21.2 °C 13.0 °C 1020.9 hPa East 5.0 km/h 5.0 km/h 60 % 0.0 mm
17:43 21.1 °C 13.0 °C 1020.9 hPa East 5.0 km/h 5.0 km/h 59 % 0.0 mm
17:48 21.0 °C 14.0 °C 1020.9 hPa East 5.0 km/h 5.0 km/h 63 % 0.0 mm
17:53 20.8 °C 13.0 °C 1020.9 hPa East 5.0 km/h 5.0 km/h 63 % 0.0 mm
17:58 20.4 °C 13.0 °C 1020.9 hPa East 5.0 km/h 5.0 km/h 64 % 0.0 mm
18:03 20.3 °C 14.0 °C 1020.9 hPa East 5.0 km/h 5.0 km/h 65 % 0.0 mm
18:08 20.1 °C 13.0 °C 1020.9 hPa East 5.0 km/h 5.0 km/h 66 % 0.0 mm
18:13 20.0 °C 13.0 °C 1020.9 hPa East 5.0 km/h 5.0 km/h 66 % 0.0 mm
18:18 19.8 °C 13.0 °C 1020.9 hPa East 5.0 km/h 5.0 km/h 67 % 0.0 mm
18:23 19.7 °C 13.0 °C 1020.9 hPa East 5.0 km/h 5.0 km/h 67 % 0.0 mm
18:28 19.5 °C 14.0 °C 1020.9 hPa East 5.0 km/h 5.0 km/h 68 % 0.0 mm
18:33 19.4 °C 13.0 °C 1020.9 hPa East 5.0 km/h 5.0 km/h 69 % 0.0 mm
18:38 19.4 °C 13.0 °C 1020.9 hPa East 5.0 km/h 5.0 km/h 69 % 0.0 mm
18:40 19.4 °C 13.0 °C 1020.9 hPa East 5.0 km/h 5.0 km/h 69 % 0.0 mm
18:45 19.3 °C 13.0 °C 1020.9 hPa East 5.0 km/h 5.0 km/h 69 % 0.0 mm
18:50 19.2 °C 14.0 °C 1020.9 hPa East 5.0 km/h 5.0 km/h 70 % 0.0 mm
18:55 19.1 °C 13.0 °C 1020.9 hPa East 5.0 km/h 5.0 km/h 70 % 0.0 mm
19:00 18.9 °C 14.0 °C 1020.9 hPa East 5.0 km/h 5.0 km/h 71 % 0.0 mm
19:05 18.6 °C 13.0 °C 1020.9 hPa East 5.0 km/h 5.0 km/h 71 % 0.0 mm
19:10 18.3 °C 13.0 °C 1020.9 hPa East 5.0 km/h 5.0 km/h 73 % 0.0 mm
19:15 17.9 °C 13.0 °C 1020.9 hPa East 5.0 km/h 5.0 km/h 73 % 0.0 mm
19:20 17.8 °C 13.0 °C 1020.9 hPa East 5.0 km/h 5.0 km/h 74 % 0.0 mm
19:25 17.4 °C 13.0 °C 1020.9 hPa East 5.0 km/h 5.0 km/h 75 % 0.0 mm
19:30 17.1 °C 13.0 °C 1020.9 hPa East 5.0 km/h 5.0 km/h 76 % 0.0 mm
19:35 16.9 °C 13.0 °C 1020.9 hPa East 5.0 km/h 5.0 km/h 79 % 0.0 mm
19:40 16.8 °C 13.0 °C 1020.9 hPa East 5.0 km/h 5.0 km/h 78 % 0.0 mm
19:45 16.5 °C 13.0 °C 1020.9 hPa East 5.0 km/h 5.0 km/h 79 % 0.0 mm
19:50 16.4 °C 13.0 °C 1020.9 hPa East 5.0 km/h 5.0 km/h 79 % 0.0 mm
19:55 15.9 °C 13.0 °C 1020.9 hPa East 5.0 km/h 5.0 km/h 81 % 0.0 mm
20:00 15.8 °C 13.0 °C 1020.9 hPa East 5.0 km/h 5.0 km/h 81 % 0.0 mm
20:05 15.7 °C 13.0 °C 1020.9 hPa East 5.0 km/h 5.0 km/h 82 % 0.0 mm
20:10 15.6 °C 13.0 °C 1020.9 hPa East 5.0 km/h 5.0 km/h 82 % 0.0 mm
20:15 15.5 °C 13.0 °C 1020.9 hPa East 5.0 km/h 5.0 km/h 82 % 0.0 mm
20:20 15.4 °C 13.0 °C 1020.9 hPa East 5.0 km/h 5.0 km/h 83 % 0.0 mm
20:25 15.2 °C 13.0 °C 1020.9 hPa East 5.0 km/h 5.0 km/h 83 % 0.0 mm
20:31 15.0 °C 12.0 °C 1020.9 hPa East 5.0 km/h 5.0 km/h 83 % 0.0 mm
20:36 14.8 °C 12.0 °C 1020.9 hPa East 5.0 km/h 5.0 km/h 84 % 0.0 mm
20:41 14.6 °C 12.0 °C 1020.9 hPa East 5.0 km/h 5.0 km/h 84 % 0.0 mm
20:46 14.5 °C 13.0 °C 1020.9 hPa East 5.0 km/h 5.0 km/h 85 % 0.0 mm
20:51 14.3 °C 12.0 °C 1020.9 hPa East 5.0 km/h 5.0 km/h 85 % 0.0 mm
20:56 14.0 °C 12.0 °C 1020.9 hPa East 5.0 km/h 5.0 km/h 86 % 0.0 mm
21:01 13.9 °C 12.0 °C 1021.9 hPa East 5.0 km/h 5.0 km/h 86 % 0.0 mm
21:06 13.6 °C 12.0 °C 1021.9 hPa East 5.0 km/h 5.0 km/h 87 % 0.0 mm
21:11 13.4 °C 12.0 °C 1021.9 hPa East 5.0 km/h 5.0 km/h 87 % 0.0 mm
21:16 13.2 °C 12.0 °C 1021.9 hPa Calm     87 % 0.0 mm
21:21 13.3 °C 12.0 °C 1021.9 hPa Calm     88 % 0.0 mm
21:27 13.3 °C 12.0 °C 1021.9 hPa Calm     90 % 0.0 mm
21:32 13.2 °C 12.0 °C 1021.9 hPa Calm     90 % 0.0 mm
21:35 13.2 °C 12.0 °C 1021.9 hPa Calm     90 % 0.0 mm
21:40 13.3 °C 12.0 °C 1021.9 hPa Calm     91 % 0.0 mm
21:45 13.3 °C 12.0 °C 1021.9 hPa Calm     92 % 0.0 mm
21:50 13.3 °C 12.0 °C 1021.9 hPa Calm     92 % 0.0 mm
21:55 13.3 °C 12.0 °C 1021.9 hPa Calm     92 % 0.0 mm
22:00 13.2 °C 12.0 °C 1021.9 hPa Calm     92 % 0.0 mm
22:05 13.2 °C 13.0 °C 1021.9 hPa Calm     93 % 0.0 mm
22:10 13.2 °C 13.0 °C 1021.9 hPa Calm     93 % 0.0 mm
22:15 13.2 °C 13.0 °C 1021.9 hPa Calm     94 % 0.0 mm
22:20 13.3 °C 13.0 °C 1021.9 hPa Calm     94 % 0.0 mm
22:25 13.3 °C 13.0 °C 1021.9 hPa Calm     94 % 0.0 mm
22:30 13.3 °C 13.0 °C 1021.9 hPa Calm     94 % 0.0 mm
22:35 13.3 °C 13.0 °C 1021.9 hPa Calm     95 % 0.0 mm
22:40 13.3 °C 13.0 °C 1021.9 hPa North 3.2 km/h 5.8 km/h 95 % 0.0 mm
22:45 13.3 °C 13.0 °C 1021.9 hPa Calm   6.4 km/h 95 % 0.0 mm
22:50 13.3 °C 13.0 °C 1021.9 hPa NE 4.3 km/h 6.4 km/h 95 % 0.0 mm
22:55 13.3 °C 13.0 °C 1021.9 hPa NE 4.0 km/h 5.0 km/h 95 % 0.0 mm
23:00 13.3 °C 13.0 °C 1021.9 hPa NNE 4.0 km/h 6.9 km/h 95 % 0.0 mm
23:05 13.3 °C 13.0 °C 1021.9 hPa Calm   6.9 km/h 95 % 0.0 mm
23:10 13.3 °C 13.0 °C 1021.9 hPa Calm   6.4 km/h 95 % 0.0 mm
23:15 13.3 °C 13.0 °C 1021.9 hPa Calm   5.5 km/h 95 % 0.0 mm
23:21 13.3 °C 13.0 °C 1021.9 hPa Calm   4.7 km/h 95 % 0.0 mm
23:26 13.3 °C 13.0 °C 1021.9 hPa Calm   2.1 km/h 95 % 0.0 mm
23:31 13.3 °C 13.0 °C 1021.9 hPa Calm     95 % 0.0 mm
23:36 13.3 °C 13.0 °C 1021.9 hPa Calm     95 % 0.0 mm
23:41 13.3 °C 13.0 °C 1021.9 hPa Calm     95 % 0.0 mm
23:46 13.3 °C 13.0 °C 1020.9 hPa Calm     95 % 0.0 mm
23:51 13.3 °C 13.0 °C 1020.9 hPa Calm     95 % 0.0 mm
23:56 13.3 °C 13.0 °C 1020.9 hPa Calm     95 % 0.0 mm
Le Gheer Warneton
Courtoisie de Weather Underground - 2.25 mb

Mise a jour : 17-12-17 07:17:12
Généré par Cumulus 1.9.4 (1099)